Hourly Weather Roundup
Issued by NWS Central Illinois

Home | Current Version | Previous Version | Text Only | Print | Product List | Glossary On
Versions: 1 2 3 4 5 6 7 8 9 10 11 12 13 14 15 16 17 18 19 20 21 22 23 24 25 26 27 28 29 30 31 32 33 34 35 36 37 38 39 40 41 42 43 44 45 46 47 48 49 50
000
NZUS43 KILX 160110
HWRILX

AREA WEATHER ROUNDUP
NATIONAL WEATHER SERVICE, LINCOLN IL
800 PM CDT TUE APR 15 2014


CITY           SKY/WX    TMP DP  RH WIND       PRES   REMARKS
BLOOMINGTON    CLEAR     36  15  42 W3        30.17S
CHAMPAIGN      CLEAR     37  19  48 NW3       30.18S
DANVILLE       CLEAR     34  22  62 CALM      30.17S
DECATUR        CLEAR     41  17  38 CALM      30.18S
FLORA          CLEAR     39  21  48 CALM      30.22R
GALESBURG      CLEAR     36  23  58 CALM      30.14S
JACKSONVILLE   CLEAR     42  18  38 CALM      30.17S
LACON          CLEAR     38  15  40 CALM      30.15F
LAWRENCEVILLE  CLEAR     38  23  55 N5        30.23R WCI  34
LITCHFIELD     CLEAR     39  24  55 CALM      30.18S
$$


CITY           SKY/WX    TMP DP  RH WIND       PRES   REMARKS
LINCOLN        CLEAR     40  19  43 CALM      30.18S
MACOMB         CLEAR     39  28  65 CALM      30.16S
MATTOON        CLEAR     37  22  54 CALM      30.19R
MT CARMEL AP   CLEAR     41  23  48 N3        30.22R
OLNEY-NOBLE AP CLEAR     37  23  56 CALM      30.22S
PARIS          CLEAR     35  27  72 CALM      30.21R
PEORIA         CLEAR     40  16  37 CALM      30.16S
PONTIAC        CLEAR     37  23  56 CALM      30.17S
RANTOUL        CLEAR     38  24  57 CALM      30.19S
ROBINSON       CLEAR     39  30  69 CALM      30.23R
SPRINGFIELD    CLEAR     42  18  37 CALM      30.17F
TAYLORVILLE    CLEAR     39  21  48 CALM      30.18S
$$

...REGIONAL REPORTS...


CITY           SKY/WX    TMP DP  RH WIND       PRES   REMARKS
CHICAGO O`HARE MOCLDY    35  16  45 SW5       30.16R WCI  31
KANKAKEE       PTCLDY    34  21  58 CALM      30.19R
MOLINE         CLEAR     37  13  37 CALM      30.14R
MOUNT VERNON   CLEAR     37  18  44 CALM      30.21F
PITTSFIELD     CLEAR     44  19  36 CALM      30.16S
QUINCY         PTCLDY    42  19  39 S5        30.13F
ROCKFORD       PTCLDY    36  15  42 W3        30.16R
$$


CITY           SKY/WX    TMP DP  RH WIND       PRES   REMARKS
BURLINGTON     CLEAR     41  18  39 CALM      30.12S
CEDAR RAPIDS   CLEAR     37  14  38 CALM      30.09S
DES MOINES     PTCLDY    44  22  41 S9        30.03F
KIRKSVILLE     PTCLDY    41  22  46 S9        30.10S
OTTUMWA        CLEAR     40  24  53 S5        30.08S
ST LOUIS       PTCLDY    46  18  32 N5        30.17F
$$


CITY           SKY/WX    TMP DP  RH WIND       PRES   REMARKS
TERRE HAUTE    CLEAR     35  22  58 CALM      30.21R
EVANSVILLE     CLEAR     41  23  48 N5        30.23R
INDIANAPOLIS   PTCLDY    32  16  51 N6        30.20R WCI  26
LAFAYETTE      CLEAR     34  16  47 CALM      30.20R
MADISON        PTCLDY    33  15  47 CALM      30.13R
MILWAUKEE      MOCLDY    30  19  63 S9        30.16R WCI  22
$$




USA.gov is the U.S. government's official web portal to all federal, state and local government web resources and services.